This is the latest recevied weather packets stored in our database for station/object KI4BSX. If no packets are shown the sender has not sent any weather packets the latest 10 day(s).
| Time | Temp. | Humidity | Pressure | Rain* | Wind** | Luminosity | Snow |
|---|---|---|---|---|---|---|---|
| 1777842535 | 22.22° C | 34% | 1019 hPa | 0 mm | - | - | - |
| 1777842233 | 22.78° C | 35% | 1019 hPa | 0 mm | - | - | - |
| 1777841927 | 22.22° C | 35% | 1019 hPa | 0 mm | - | - | - |
| 1777841625 | 22.22° C | 37% | 1019.1 hPa | 0 mm | - | - | - |
| 1777841321 | 21.67° C | 36% | 1019 hPa | 0 mm | - | - | - |
| 1777841018 | 22.22° C | 36% | 1019.4 hPa | 0 mm | - | - | - |
| 1777840716 | 21.67° C | 35% | 1019.2 hPa | 0 mm | - | - | - |
| 1777840413 | 22.22° C | 36% | 1019.4 hPa | 0 mm | - | - | - |
| 1777840110 | 22.78° C | 37% | 1019.3 hPa | 0 mm | - | - | - |
| 1777839808 | 21.11° C | 37% | 1019.5 hPa | 0 mm | - | - | - |
| 1777839506 | 22.22° C | 37% | 1019.7 hPa | 0 mm | - | - | - |
| 1777839202 | 21.67° C | 37% | 1019.7 hPa | 0 mm | - | - | - |
| 1777838900 | 21.11° C | 37% | 1019.9 hPa | 0 mm | - | - | - |
| 1777838596 | 21.67° C | 37% | 1019.9 hPa | 0 mm | - | - | - |
| 1777838293 | 21.67° C | 37% | 1020 hPa | 0 mm | - | - | - |
| 1777837990 | 21.67° C | 37% | 1020 hPa | 0 mm | - | - | - |
| 1777837687 | 22.78° C | 37% | 1020.1 hPa | 0 mm | - | - | - |
| 1777837383 | 21.67° C | 38% | 1020.3 hPa | 0 mm | - | - | - |
| 1777837079 | 21.67° C | 37% | 1020.5 hPa | 0 mm | - | - | - |
| 1777836775 | 21.11° C | 37% | 1020.4 hPa | 0 mm | - | - | - |
| 1777836471 | 20.56° C | 37% | 1021 hPa | 0 mm | - | - | - |
| 1777836166 | 21.11° C | 37% | 1020.9 hPa | 0 mm | - | - | - |
| 1777835863 | 21.11° C | 37% | 1021.1 hPa | 0 mm | - | - | - |
| 1777835560 | 20.56° C | 37% | 1021.1 hPa | 0 mm | - | - | - |
| 1777835257 | 20.56° C | 37% | 1021.1 hPa | 0 mm | - | - | - |
* Rain latest hour (hover to see other rain measurements)
** Current wind speed in m/s (hover to see current wind gust speed)